Weather History for Massena, NY

Change the Weather History Date:

Saturday, October 6, 2012

  Actual Average Record
Temperature  
Mean Temperature 53 °F 50 °F  
Max Temperature 60 °F 60 °F 81 °F (2005)
Min Temperature 46 °F 40 °F 15 °F (1984)
Degree Days  
Heating Degree Days 12 15  
Month to date heating degree days 35 85  
Since 1 July heating degree days 252 385  
Cooling Degree Days 0 0  
Month to date cooling degree days 0 0  
Year to date cooling degree days 537 361  
Growing Degree Days 4 (Base 50)    
Moisture  
Dew Point 46 °F    
Average Humidity 70    
Maximum Humidity 93    
Minimum Humidity 46    
Precipitation  
Precipitation 0.65 in 0.12 in 1.44 in (2010)
Month to date precipitation 1.07 0.66  
Year to date precipitation 23.59 26.85  
Sea Level Pressure  
Sea Level Pressure 29.80 in    
Wind  
Wind Speed 9 mph (WSW)    
Max Wind Speed 25 mph    
Max Gust Speed 31 mph    
Visibility 7 miles    
Events Rain    
T = Trace of Precipitation, MM = Missing Value Source: NWS Daily Summary

Daily Weather History Graph

Daily Weather History Graph

Search for Another Location

Airport:

Trip Planner

Search our weather history database for the weather conditions in past years. The results will help you decide how hot, cold, wet, or windy it might be!

Date:

Astronomy

Oct. 06, 2012 Rise Set
Actual Time 7:04 AM EDT 6:29 PM EDT
Civil Twilight 6:34 AM EDT 6:59 PM EDT
Nautical Twilight 6:00 AM EDT 7:32 PM EDT
Astronomical Twilight 5:26 AM EDT 8:07 PM EDT
Moon 10:31 PM EDT (10/6) 1:08 PM EDT (10/6)
Length of Visible Light 12h 24m
Length of Day
11h 25m
Waning Gibbous, 65% of the Moon is Illuminated
Oct 6
Waning Gibbous
Oct 8
Last Quarter
Oct 15
New
Oct 21
First Quarter
Oct 29
Full

Hourly Weather History & Observations

Time (EDT) Temp. Dew Point Humidity Pressure Visibility Wind Dir Wind Speed Gust Speed Precip Events Conditions
12:53 AM 60.1 °F 50.0 °F 69% 29.83 in 10.0 mi SW 5.8 mph - 0.00 in Rain Light Rain
1:53 AM 57.0 °F 51.1 °F 81% 29.82 in 10.0 mi SW 5.8 mph - 0.00 in   Overcast
2:53 AM 55.9 °F 50.0 °F 80% 29.81 in 10.0 mi SW 3.5 mph - 0.00 in Rain Light Rain
3:46 AM 53.6 °F 50.0 °F 88% 29.79 in 5.0 mi WSW 3.5 mph - 0.06 in Rain Light Rain
3:53 AM 53.1 °F 51.1 °F 93% 29.79 in 5.0 mi WSW 3.5 mph - 0.06 in Rain Light Rain
4:21 AM 51.8 °F 48.2 °F 88% 29.80 in 6.0 mi NNW 6.9 mph - 0.05 in Rain Light Rain
4:46 AM 50.0 °F 48.2 °F 94% 29.79 in 3.0 mi NNW 5.8 mph - 0.11 in Rain Rain
4:53 AM 50.0 °F 48.0 °F 93% 29.80 in 3.0 mi NNW 4.6 mph - 0.13 in Rain Rain
5:26 AM 50.0 °F 48.2 °F 94% 29.78 in 5.0 mi NW 8.1 mph - 0.06 in Rain Rain
5:53 AM 48.9 °F 46.9 °F 93% 29.78 in 4.0 mi Variable 3.5 mph - 0.13 in Rain Rain
5:58 AM 48.2 °F 46.4 °F 93% 29.77 in 5.0 mi North 4.6 mph - 0.01 in Rain Rain
6:07 AM 48.2 °F 46.4 °F 93% 29.77 in 7.0 mi Calm Calm - 0.02 in Rain Light Rain
6:53 AM 48.0 °F 46.0 °F 93% 29.79 in 4.0 mi NW 4.6 mph - 0.10 in Rain Rain
7:14 AM 48.2 °F 46.4 °F 93% 29.79 in 4.0 mi West 4.6 mph - 0.06 in Rain Rain
7:24 AM 48.2 °F 46.4 °F 93% 29.79 in 3.0 mi West 3.5 mph - 0.08 in Rain Rain
7:53 AM 48.0 °F 46.0 °F 93% 29.80 in 2.5 mi West 5.8 mph - 0.16 in Rain Rain
8:03 AM 48.2 °F 46.4 °F 93% 29.79 in 3.0 mi SW 4.6 mph - 0.02 in Rain Rain
8:11 AM 48.2 °F 46.4 °F 93% 29.79 in 5.0 mi SW 4.6 mph - 0.02 in Rain Light Rain
8:23 AM 48.2 °F 46.4 °F 93% 29.79 in 7.0 mi SW 4.6 mph - 0.03 in Rain Light Rain
8:53 AM 48.0 °F 46.9 °F 96% 29.80 in 6.0 mi WSW 4.6 mph - 0.04 in Rain Light Rain
9:11 AM 48.2 °F 46.4 °F 93% 29.78 in 5.0 mi SW 4.6 mph - 0.01 in Rain Light Rain
9:19 AM 48.2 °F 46.4 °F 93% 29.78 in 5.0 mi SW 4.6 mph - 0.02 in Rain Light Rain
9:36 AM 48.2 °F 46.4 °F 93% 29.78 in 10.0 mi WSW 3.5 mph - 0.02 in   Overcast
9:51 AM 48.2 °F 48.2 °F 100% 29.79 in 9.0 mi WSW 4.6 mph - 0.02 in   Overcast
9:53 AM 48.9 °F 46.9 °F 93% 29.80 in 9.0 mi WSW 5.8 mph - 0.02 in   Overcast
10:14 AM 48.2 °F 48.2 °F 100% 29.78 in 5.0 mi SW 4.6 mph - 0.00 in Rain Light Rain
10:43 AM 48.2 °F 48.2 °F 100% 29.78 in 6.0 mi SW 6.9 mph - 0.00 in Rain Light Rain
10:53 AM 48.9 °F 48.0 °F 97% 29.79 in 7.0 mi SW 5.8 mph - 0.01 in Rain Light Rain
11:43 AM 51.8 °F 48.2 °F 88% 29.78 in 10.0 mi SSW 9.2 mph - 0.00 in   Overcast
11:53 AM 51.1 °F 48.9 °F 92% 29.79 in 10.0 mi SW 11.5 mph - 0.00 in   Overcast
12:30 PM 53.6 °F 48.2 °F 82% 29.78 in 10.0 mi WSW 12.7 mph 18.4 mph N/A   Overcast
12:53 PM 55.0 °F 50.0 °F 83% 29.79 in 10.0 mi SW 13.8 mph 19.6 mph N/A   Overcast
1:53 PM 55.9 °F 46.9 °F 72% 29.77 in 10.0 mi SW 12.7 mph - N/A   Scattered Clouds
2:06 PM 55.4 °F 48.2 °F 77% 29.76 in 10.0 mi SW 16.1 mph - N/A   Mostly Cloudy
2:16 PM 57.2 °F 46.4 °F 67% 29.77 in 10.0 mi SW 15.0 mph - N/A   Scattered Clouds
2:53 PM 59.0 °F 43.0 °F 55% 29.76 in 10.0 mi WSW 16.1 mph 27.6 mph N/A   Scattered Clouds
3:53 PM 60.1 °F 39.9 °F 47% 29.76 in 10.0 mi SW 19.6 mph 26.5 mph N/A   Mostly Cloudy
4:53 PM 57.9 °F 39.0 °F 49% 29.77 in 10.0 mi WSW 13.8 mph 31.1 mph N/A   Clear
5:53 PM 55.0 °F 39.0 °F 55% 29.80 in 10.0 mi WSW 16.1 mph 24.2 mph N/A   Mostly Cloudy
6:53 PM 53.6 °F 37.4 °F 54% 29.82 in 10.0 mi SW 12.7 mph 21.9 mph N/A   Overcast
7:53 PM 51.1 °F 37.0 °F 59% 29.86 in 10.0 mi WSW 10.4 mph - N/A   Scattered Clouds
8:53 PM 50.0 °F 37.9 °F 63% 29.89 in 10.0 mi SW 9.2 mph - N/A   Mostly Cloudy
9:53 PM 48.0 °F 37.9 °F 68% 29.91 in 10.0 mi SW 9.2 mph - N/A   Partly Cloudy
10:53 PM 48.9 °F 37.9 °F 66% 29.93 in 10.0 mi WSW 11.5 mph 20.7 mph N/A   Scattered Clouds
11:53 PM 46.9 °F 37.0 °F 68% 29.94 in 10.0 mi WSW 9.2 mph - N/A   Clear